Temp
3 3 3 3 3 3 3 4 5 3 5 5 5 6 6 4 2 2 4 6 6 7 8 8 8 8 8 9 10 10 10 10 11 11 11 12 11 12
2 2 2 2 2 3 3 3 3 4 3 4 4 5 5 4 4 3 3 4 5 6 7 7 8 9 9 9 9 9 10 10 10 10 10 11 11 11
1 1 1 1 1 1 2 2 2 2 2 2 2 3 3 3 2 1 2 4 5 5 5 5 7 7 7 7 8 8 8 9 9 10 10 11 11 11
0 -0 -0 -0 -0 -0 -1 -0 -0 -0 -0 0 1 1 1 1 2 2 2 3 3 4 4 4 5 6 6 6 7 7 7 8 9 9 9 10 10 11
-0 -0 -0 -1 -2 -2 -2 -2 -2 -2 -1 -1 -1 -1 -1 -1 0 0 1 1 1 2 2 2 2 3 4 5 6 5 6 6 6 8 8 9 9 9
-1 -1 -1 -2 -2 -2 -2 -2 -3 -3 -3 -3 -2 -2 -2 -2 -1 -1 0 0 0 0 1 1 1 2 2 3 4 4 5 4 5 6 6 7 9 9
-2 -2 -2 -2 -3 -4 -4 -4 -4 -4 -4 -4 -4 -4 -3 -3 -3 -3 -3 -2 -1 -1 -0 -0 0 1 1 2 2 2 3 4 4 5 6 6 8 7
-3 -3 -3 -3 -3 -3 -3 -4 -5 -5 -5 -5 -6 -6 -6 -5 -5 -5 -5 -5 -5 -4 -4 -1 -2 -1 -1 -0 0 1 2 2 4 5 5 5 6 7
-3 -3 -3 -4 -4 -4 -4 -4 -4 -5 -5 -6 -6 -6 -6 -6 -6 -6 -6 -6 -6 -5 -5 -4 -4 -2 -2 -1 -1 -0 -0 1 1 2 2 4 5 5
-4 -4 -4 -4 -4 -5 -6 -6 -6 -6 -6 -6 -6 -6 -6 -6 -6 -6 -5 -6 -6 -5 -5 -6 -4 -4 -2 -2 -2 -1 -1 -2 -2 -1 0 1 3 4
-4 -4 -5 -5 -5 -7 -7 -7 -7 -7 -7 -7 -7 -7 -6 -6 -6 -6 -6 -6 -7 -7 -6 -7 -7 -6 -5 -3 -2 -2 -3 -2 -2 -1 -0 0 1 3
-5 -5 -6 -6 -7 -7 -7 -7 -7 -7 -7 -7 -7 -7 -7 -7 -7 -7 -7 -7 -8 -8 -7 -8 -8 -8 -8 -5 -4 -3 -3 -2 -2 -2 -1 -0 0 1
-8 -8 -6 -7 -7 -8 -7 -7 -7 -7 -8 -8 -8 -7 -7 -7 -7 -7 -7 -8 -8 -8 -8 -8 -9 -8 -9 -9 -6 -4 -3 -3 -2 -2 -1 -1 -0 0
-8 -8 -8 -8 -8 -8 -8 -8 -7 -8 -8 -7 -7 -7 -7 -7 -7 -7 -8 -8 -9 -9 -8 -8 -9 -9 -9 -9 -9 -6 -4 -3 -3 -2 -2 -2 -2 -1
-8 -8 -8 -8 -8 -8 -7 -7 -7 -7 -7 -7 -7 -7 -7 -8 -8 -8 -8 -8 -9 -9 -9 -9 -9 -9 -9 -9 -9 -6 -7 -4 -4 -3 -4 -4 -3 -2
-7 -8 -8 -8 -8 -8 -7 -7 -7 -8 -8 -8 -8 -8 -8 -8 -8 -8 -9 -9 -9 -8 -8 -8 -9 -9 -10 -10 -10 -8 -6 -9 -4 -5 -5 -4 -3 -3
-8 -8 -8 -8 -7 -7 -7 -7 -7 -8 -8 -8 -8 -8 -8 -8 -8 -8 -9 -9 -9 -9 -9 -9 -9 -9 -9 -9 -10 -8 -6 -7 -7 -7 -7 -6 -4 -3
-8 -8 -8 -8 -8 -8 -7 -7 -8 -8 -8 -8 -8 -8 -9 -9 -9 -9 -9 -9 -9 -9 -9 -9 -10 -10 -10 -9 -9 -8 -8 -8 -8 -8 -7 -8 -6 -4
-9 -8 -8 -8 -8 -8 -8 -8 -8 -8 -8 -8 -8 -8 -9 -9 -9 -10 -10 -10 -10 -10 -10 -10 -10 -11 -12 -11 -10 -9 -8 -9 -9 -8 -8 -7 -7 -5
-8 -8 -8 -8 -8 -8 -8 -8 -8 -8 -8 -8 -8 -8 -9 -9 -9 -9 -9 -10 -10 -10 -10 -9 -10 -10 -11 -11 -11 -11 -9 -9 -9 -8 -8 -7 -6 -6
-8 -8 -8 -8 -8 -8 -8 -8 -8 -8 -8 -8 -8 -9 -9 -9 -9 -9 -9 -9 -10 -11 -11 -10 -9 -10 -11 -12 -12 -10 -8 -8 -9 -9 -8 -9 -7 -7
-8 -8 -8 -8 -8 -8 -8 -8 -8 -8 -8 -8 -8 -8 -8 -8 -8 -9 -9 -9 -9 -9 -9 -9 -9 -10 -10 -11 -11 -10 -9 -7 -7 -7 -8 -8 -8 -8
-8 -8 -8 -8 -8 -8 -8 -8 -8 -8 -8 -8 -8 -8 -8 -8 -8 -8 -8 -9 -9 -9 -9 -9 -10 -10 -10 -10 -10 -10 -9 -8 -7 -7 -7 -7 -6 -6
Height
1449 1447 1444 1442 1440 1439 1437 1435 1433 1433 1432 1431 1431 1430 1433 1436 1424 1428 1425 1429 1430 1430 1431 1434 1435 1436 1436 1438 1439 1441 1442 1444 1446 1447 1448 1450 1454 1456
1450 1448 1445 1442 1440 1438 1436 1434 1432 1431 1432 1431 1429 1429 1427 1427 1424 1426 1424 1426 1425 1425 1426 1428 1427 1426 1430 1430 1431 1432 1432 1434 1435 1437 1439 1440 1443 1446
1450 1447 1445 1442 1440 1438 1436 1434 1432 1430 1431 1429 1430 1428 1427 1424 1427 1427 1422 1423 1422 1422 1422 1422 1419 1421 1423 1422 1423 1423 1424 1425 1424 1426 1428 1430 1433 1435
1448 1446 1445 1443 1440 1438 1436 1434 1432 1431 1431 1427 1428 1425 1429 1424 1423 1421 1423 1421 1418 1416 1415 1416 1414 1413 1415 1416 1416 1415 1417 1416 1415 1416 1418 1420 1423 1424
1447 1446 1444 1442 1441 1439 1437 1435 1433 1431 1429 1426 1424 1422 1423 1421 1421 1418 1417 1417 1414 1412 1412 1410 1408 1407 1409 1408 1408 1407 1408 1407 1409 1409 1411 1410 1412 1414
1447 1445 1443 1441 1440 1438 1437 1434 1432 1430 1428 1426 1424 1423 1420 1417 1414 1412 1413 1412 1411 1409 1407 1406 1405 1402 1401 1402 1404 1403 1401 1401 1405 1402 1401 1400 1401 1403
1445 1443 1441 1440 1438 1436 1435 1433 1431 1429 1427 1426 1424 1422 1419 1415 1414 1411 1410 1409 1408 1406 1403 1401 1398 1396 1398 1399 1396 1393 1394 1394 1392 1391 1390 1392 1393 1394
1443 1441 1438 1436 1435 1433 1432 1431 1430 1428 1427 1425 1423 1420 1419 1418 1416 1414 1411 1407 1405 1403 1399 1398 1396 1394 1393 1392 1388 1386 1385 1383 1382 1383 1384 1384 1384 1385
1440 1437 1435 1433 1430 1429 1427 1426 1426 1425 1423 1422 1419 1418 1415 1413 1411 1407 1406 1403 1401 1399 1394 1389 1389 1388 1386 1384 1382 1380 1379 1377 1376 1375 1374 1375 1375 1376
1436 1434 1431 1429 1426 1424 1423 1421 1420 1419 1418 1416 1414 1412 1410 1409 1407 1404 1401 1398 1395 1394 1391 1384 1384 1381 1380 1379 1377 1374 1372 1371 1371 1368 1366 1367 1365 1366
1432 1430 1427 1425 1423 1421 1419 1417 1414 1414 1413 1411 1409 1407 1405 1403 1402 1399 1397 1394 1391 1389 1388 1384 1382 1376 1373 1371 1369 1369 1368 1365 1364 1361 1360 1358 1355 1355
1427 1425 1424 1421 1418 1417 1415 1413 1410 1409 1406 1404 1403 1402 1400 1399 1397 1396 1393 1390 1388 1386 1386 1384 1380 1375 1367 1364 1365 1366 1363 1362 1357 1356 1353 1350 1348 1347
1423 1421 1419 1417 1414 1413 1411 1409 1406 1404 1401 1398 1396 1395 1393 1391 1390 1389 1387 1386 1384 1382 1382 1379 1373 1371 1368 1362 1355 1357 1355 1354 1349 1349 1344 1342 1341 1339
1418 1417 1414 1412 1410 1408 1406 1403 1400 1397 1394 1392 1390 1388 1386 1384 1383 1382 1380 1378 1377 1376 1375 1374 1368 1367 1363 1358 1352 1349 1348 1347 1342 1340 1336 1335 1333 1332
1413 1412 1411 1407 1405 1402 1400 1396 1394 1391 1389 1386 1384 1382 1380 1378 1376 1375 1373 1372 1369 1368 1367 1366 1363 1360 1357 1352 1348 1344 1341 1337 1336 1333 1330 1328 1327 1327
1406 1406 1405 1403 1400 1397 1394 1391 1389 1386 1384 1381 1378 1376 1374 1372 1369 1368 1365 1364 1361 1359 1358 1357 1355 1352 1349 1346 1344 1339 1337 1333 1330 1327 1324 1322 1322 1321
1400 1400 1399 1397 1394 1392 1389 1386 1384 1382 1379 1377 1374 1371 1369 1366 1364 1362 1359 1357 1354 1351 1350 1348 1346 1345 1342 1340 1335 1333 1329 1327 1324 1322 1320 1316 1315 1315
1395 1394 1394 1391 1389 1386 1384 1381 1379 1377 1374 1371 1369 1366 1363 1360 1357 1355 1353 1350 1346 1344 1342 1341 1339 1336 1333 1330 1329 1326 1324 1321 1319 1317 1316 1313 1309 1310
1389 1389 1387 1385 1383 1381 1378 1376 1372 1370 1368 1365 1362 1359 1356 1353 1351 1348 1346 1343 1339 1337 1335 1334 1332 1330 1326 1322 1322 1322 1317 1315 1313 1311 1311 1308 1304 1303
1384 1383 1381 1379 1378 1375 1373 1370 1366 1363 1360 1357 1354 1352 1349 1346 1343 1340 1338 1335 1332 1330 1327 1326 1324 1323 1320 1316 1313 1311 1311 1308 1307 1305 1304 1302 1298 1297
1379 1377 1376 1374 1372 1369 1367 1363 1360 1357 1354 1351 1348 1344 1341 1338 1335 1332 1330 1327 1325 1322 1318 1316 1316 1315 1312 1310 1304 1300 1300 1300 1299 1299 1297 1296 1291 1290
1373 1371 1370 1369 1366 1364 1361 1357 1354 1351 1347 1344 1341 1337 1334 1331 1327 1325 1322 1318 1316 1314 1310 1308 1308 1307 1304 1302 1297 1294 1292 1290 1291 1291 1291 1290 1288 1284
1367 1366 1365 1363 1361 1358 1355 1352 1348 1345 1342 1338 1334 1331 1327 1323 1320 1316 1313 1311 1307 1305 1302 1300 1299 1298 1295 1294 1292 1288 1285 1283 1281 1280 1279 1279 1277 1276
Wind_Speed
12 12 12 11 11 10 9 8 6 4 5 5 4 10 17 22 16 9 5 8 14 15 17 19 21 24 23 24 27 31 32 33 35 36 35 36 41 42
14 14 14 13 12 10 9 9 8 7 6 10 13 17 22 23 26 21 17 15 15 17 20 22 25 27 25 25 26 27 28 31 33 35 37 37 37 39
12 12 13 13 13 12 11 10 8 7 8 12 13 18 23 27 25 23 23 20 18 19 19 23 27 27 26 26 27 27 28 30 30 33 35 38 40 42
13 13 13 12 12 12 11 11 10 9 8 10 12 13 14 14 16 17 17 17 18 19 19 20 25 26 28 28 27 27 28 28 29 29 33 36 38 38
12 12 13 13 12 12 12 11 11 11 11 12 13 14 16 16 16 15 16 14 14 15 16 16 17 20 24 27 27 28 30 29 28 29 31 30 34 37
11 12 13 13 12 12 13 13 13 13 14 14 13 14 15 17 19 20 19 16 15 14 12 13 15 16 17 20 23 25 27 29 29 29 27 29 32 35
12 12 11 11 12 13 13 13 13 13 14 14 15 16 17 19 19 20 21 21 17 15 16 16 16 15 15 16 17 19 23 26 29 30 27 27 29 33
14 14 14 14 12 11 12 12 11 10 13 16 17 15 16 16 17 19 19 20 19 16 27 20 20 18 16 15 17 17 20 24 28 29 31 31 30 29
15 16 16 14 14 14 13 14 15 15 15 16 17 16 20 19 19 20 20 21 22 24 26 30 25 23 20 19 18 17 18 20 21 22 25 30 32 29
17 16 16 16 16 16 16 17 18 17 16 17 19 20 19 19 18 21 22 23 27 26 24 26 28 28 25 20 19 17 16 16 21 22 23 26 29 34
16 16 15 17 17 15 16 18 19 18 17 16 17 19 21 20 17 20 22 24 22 24 28 23 26 32 31 24 16 8 18 24 22 21 22 24 25 31
17 16 13 15 16 14 15 18 22 22 21 19 18 20 21 21 21 21 24 26 22 21 16 23 22 26 20 22 14 27 23 22 21 21 21 21 23 26
14 16 16 15 15 14 15 18 20 21 22 25 26 25 24 23 20 19 20 21 22 23 21 22 26 27 18 25 37 33 27 25 23 22 20 20 20 23
16 17 19 15 16 16 15 19 21 21 22 25 26 24 21 20 19 19 18 17 17 22 24 23 29 30 31 34 33 37 31 28 27 24 22 17 15 19
16 17 17 17 16 18 20 19 18 19 20 21 22 22 21 22 22 21 21 23 24 26 27 29 31 32 30 31 32 36 36 32 28 20 23 25 24 20
16 17 18 18 19 21 20 18 17 17 18 19 21 23 24 24 24 24 25 25 26 27 26 26 26 24 24 26 27 33 32 28 30 28 26 25 23 19
15 20 22 21 21 19 17 16 17 17 18 19 21 22 22 23 24 24 25 26 27 28 26 22 21 21 23 25 28 30 31 32 30 27 23 26 23 18
14 20 21 20 19 18 18 17 17 18 19 21 21 22 23 24 25 25 25 25 26 26 26 24 23 25 24 25 22 23 22 24 27 25 23 22 26 21
15 18 19 18 19 18 18 20 21 21 21 22 23 23 23 24 24 25 25 26 28 28 27 25 24 22 22 27 24 21 23 21 22 23 23 26 28 25
16 17 17 17 18 19 20 21 22 22 23 24 24 24 24 25 25 26 27 27 27 27 27 25 24 22 25 28 28 29 26 29 26 27 26 25 27 25
15 15 15 17 18 20 21 22 23 23 24 25 26 27 27 26 26 26 26 27 26 27 30 30 27 23 24 25 29 34 30 24 24 25 27 26 28 26
15 16 16 17 18 20 22 22 24 24 25 27 26 25 25 24 27 26 27 28 28 28 29 28 25 24 24 25 30 32 30 23 19 23 24 24 26 19
14 16 16 17 19 20 22 22 23 25 26 26 25 25 26 28 28 28 27 28 29 29 29 28 25 24 24 23 25 27 28 27 26 27 27 23 23 25
Wind_Direction
342 342 346 342 342 342 344 339 340 345 354 321 307 264 297 309 334 330 330 262 259 252 254 261 263 260 260 268 271 267 265 260 253 252 253 253 249 244
338 337 338 341 342 336 332 328 317 308 278 286 296 299 295 300 313 313 312 300 289 280 271 267 263 266 272 273 273 274 267 260 257 253 251 252 252 251
350 346 345 344 343 340 335 327 324 310 288 283 289 287 297 300 302 306 310 307 295 285 278 269 267 271 271 272 271 272 274 266 259 256 254 251 251 252
352 352 352 351 349 348 348 346 340 332 321 323 314 314 309 307 303 303 301 304 302 295 291 284 274 272 273 269 269 269 269 268 264 262 254 252 252 249
352 350 349 349 348 350 350 347 345 344 339 335 331 332 326 325 319 321 317 316 312 302 294 293 287 279 276 273 269 268 266 265 268 266 261 256 252 253
346 345 343 343 340 336 334 333 332 331 333 333 328 326 327 327 327 325 319 322 322 314 302 301 298 293 289 284 273 269 267 261 262 265 269 267 258 254
336 338 336 332 329 326 324 322 320 317 318 319 321 322 324 330 332 330 327 326 326 322 313 319 316 305 291 285 281 274 267 267 262 257 258 261 263 262
325 327 326 323 320 313 307 309 307 309 305 303 305 307 311 316 318 318 321 331 333 328 325 320 327 321 317 310 298 289 276 272 266 263 258 257 258 260
317 318 318 317 316 313 307 298 296 295 291 287 288 293 301 308 309 312 316 313 316 322 324 321 328 320 318 314 310 299 285 278 276 270 268 258 254 255
310 310 311 311 313 312 311 307 306 303 298 291 287 292 296 301 300 302 302 299 307 312 319 317 321 318 317 316 308 298 291 297 293 288 285 276 263 255
305 306 306 308 311 314 310 308 309 308 306 296 287 286 289 288 292 289 289 296 301 305 314 313 318 318 319 320 311 283 309 310 300 294 290 285 283 267
303 297 299 307 310 314 308 308 304 308 312 307 296 288 285 285 284 284 285 287 289 297 304 309 309 323 322 323 295 308 308 304 300 296 290 286 280 278
305 303 310 312 313 311 304 294 299 305 299 293 295 295 296 294 290 285 282 279 276 276 296 300 303 310 303 304 309 311 314 311 307 299 293 288 279 274
292 299 309 317 312 303 298 298 299 298 293 294 297 300 300 297 293 291 291 287 274 276 285 288 293 300 301 299 300 305 308 307 308 305 300 287 281 273
293 303 299 300 301 305 312 312 309 304 298 296 297 298 300 300 298 294 290 287 284 281 282 285 287 291 290 288 292 297 303 304 305 306 303 301 295 287
306 304 306 308 307 309 308 309 308 308 306 304 304 303 302 301 299 300 298 297 292 290 288 288 287 285 283 284 286 289 293 293 301 301 302 297 292 287
304 299 303 305 308 310 310 310 309 309 307 305 303 303 302 300 298 298 296 297 293 297 300 299 298 293 289 286 283 283 292 295 296 301 302 298 293 286
292 290 297 306 308 310 312 313 314 314 312 306 303 301 300 299 299 298 297 296 296 298 299 302 300 300 298 293 285 290 286 289 297 295 295 297 298 292
284 293 300 304 306 308 312 315 315 315 312 309 306 305 303 301 299 297 296 294 294 296 296 297 296 293 289 288 291 287 284 284 289 288 292 294 294 293
289 295 299 302 306 309 313 315 316 315 313 311 308 307 306 303 300 298 297 295 294 295 294 293 290 290 287 290 292 285 286 286 283 285 291 294 289 289
292 295 300 304 307 310 314 316 315 315 315 315 312 310 309 305 301 298 295 293 293 290 291 295 301 299 292 291 283 287 297 292 285 284 292 293 291 292
292 297 303 306 307 311 315 316 316 316 316 316 314 312 311 306 301 301 296 293 291 290 290 293 295 293 286 282 284 292 297 294 283 283 282 276 274 264
291 296 303 306 309 314 317 318 316 315 317 317 316 315 312 309 308 303 299 295 292 291 291 294 296 294 291 289 290 293 296 296 297 296 292 288 272 267